EST,Max TemperatureF,Mean TemperatureF,Min TemperatureF,Max Dew PointF,MeanDew PointF,Min DewpointF,Max Humidity, Mean Humidity, Min Humidity, Max Sea Level PressureIn, Mean Sea Level PressureIn, Min Sea Level PressureIn, Max VisibilityMiles, Mean VisibilityMiles, Min VisibilityMiles, Max Wind SpeedMPH, Mean Wind SpeedMPH, Max Gust SpeedMPH,PrecipitationIn, CloudCover, Events, WindDirDegrees
2014-1-1,50,38,26,27,22,18,86,58,34,30.28,30.19,30.04,10,10,10,14,6,20,0.00,0,,209
2014-1-2,39,26,14,39,31,12,100,93,65,30.03,29.83,29.66,10,6,0,21,8,34,0.08,7,Rain-Snow,244
2014-1-3,21,14,8,12,8,1,100,75,42,30.28,30.21,29.97,10,7,1,20,9,30,0.00,4,Snow,313
2014-1-4,41,31,21,32,10,1,75,42,24,30.23,30.17,30.09,10,10,10,16,10,22,0.00,0,,187
2014-1-5,51,43,35,46,39,32,100,79,70,30.09,29.88,29.56,10,10,7,16,9,24,0.18,5,Rain,190
2014-1-6,46,21,-4,46,10,-9,100,85,61,30.14,29.92,29.58,10,5,0,18,13,28,0.16,7,Rain-Snow,283
2014-1-7,12,2,-7,1,-5,-13,85,72,61,30.33,30.25,30.15,10,10,4,16,9,25,0.00,2,,231
2014-1-8,32,20,8,18,9,0,73,58,41,30.43,30.37,30.28,10,10,10,17,9,24,0.00,0,,211
2014-1-9,44,36,28,30,21,14,70,52,39,30.45,30.38,30.31,10,10,10,13,3,18,0.00,6,,163
2014-1-10,53,47,41,54,47,32,100,96,66,30.31,30.16,29.93,10,10,2,15,8,22,0.05,6,Rain,161
2014-1-11,57,46,35,57,47,32,100,91,70,29.93,29.72,29.59,10,9,4,23,12,30,0.84,7,Rain-Thunderstorm,216
2014-1-12,50,41,32,36,31,27,100,75,50,30.09,30.01,29.85,10,10,10,10,7,22,0.00,2,,228
2014-1-13,48,44,39,43,35,28,100,73,57,30.05,29.95,29.83,10,10,10,25,14,36,0.03,4,Rain,215
2014-1-14,48,42,37,41,36,30,100,82,53,29.92,29.85,29.77,10,9,2,16,7,21,0.10,4,Rain,233
2014-1-15,39,30,21,34,27,18,100,84,56,29.98,29.93,29.88,10,9,2,12,7,16,0.01,6,Snow,300
2014-1-16,33,25,17,23,18,14,93,72,48,29.95,29.89,29.81,10,10,7,24,5,29,0.00,4,Snow,203
2014-1-17,37,28,19,32,25,14,100,83,60,29.94,29.84,29.74,10,8,0,22,11,32,0.00,7,Snow,240
2014-1-18,32,22,12,19,15,9,86,72,48,29.98,29.90,29.81,10,9,2,21,8,32,0.00,6,Snow,238
2014-1-19,37,34,30,30,25,14,93,74,48,29.93,29.87,29.78,10,10,7,22,14,30,0.00,4,Snow,236
2014-1-20,51,42,32,30,28,25,80,64,43,29.89,29.85,29.79,10,10,10,22,12,28,0.00,0,,229
2014-1-21,41,26,10,32,24,9,100,87,61,29.90,29.73,29.63,10,6,0,16,6,24,0.00,7,Rain-Snow,304
2014-1-22,21,12,3,9,3,0,92,69,46,30.00,29.93,29.87,10,8,1,13,7,18,0.00,6,Snow,268
2014-1-23,19,10,1,14,6,-6,86,70,53,30.37,30.18,30.00,10,8,0,18,10,26,0.00,5,Snow,284
2014-1-24,19,8,-4,3,-2,-8,92,62,33,30.44,30.27,29.96,10,10,3,17,7,25,0.00,1,Snow,215
2014-1-25,30,24,17,27,13,-2,100,69,39,29.95,29.71,29.59,10,8,0,24,18,41,0.00,6,Snow,234
2014-1-26,42,27,12,32,15,0,66,53,37,29.84,29.77,29.70,10,10,7,24,11,34,0.00,2,,221
2014-1-27,42,27,12,32,18,0,100,64,40,30.15,29.93,29.73,10,10,10,24,14,34,0.00,6,,295
2014-1-28,14,10,5,10,5,0,100,79,62,30.18,30.13,30.10,10,5,0,9,6,,0.02,8,Snow,359
2014-1-29,23,10,-2,5,0,-6,92,67,31,30.22,30.18,30.11,10,9,2,6,2,,0.01,1,Snow,310
2014-1-30,33,17,1,12,4,-4,85,51,30,30.20,30.12,30.03,10,10,10,15,4,21,0.00,0,,200
2014-1-31,41,34,28,30,18,9,80,54,38,30.15,30.11,30.05,10,10,10,15,9,18,0.00,2,,219